Location: Unspecified
(45.8566°N, 0.0000°E)
Time: 02:03:14
(UTC+00:00)

BlueWalker 3 - Visible Passes

Search period start: 04 April 2026 00:00
Search period end: 14 April 2026 00:00
Orbit: 451 x 457 km, 53.2° (Epoch: 29 March)

Date Brightness Start Highest point End Pass type
(mag) Time Alt. Az. Time Alt. Az. Time Alt. Az.
4 Apr 2.8 19:44:49 10° NW 19:48:09 35° NNE 19:50:14 19° ENE visible
4 Apr 3.9 21:22:12 10° WNW 21:23:54 25° WNW 21:23:54 25° WNW visible
5 Apr 3.0 19:08:24 10° NW 19:11:40 31° NNE 19:14:56 10° E visible
5 Apr 2.0 20:45:45 10° WNW 20:48:55 63° W 20:48:55 63° W visible
6 Apr 1.6 20:09:20 10° WNW 20:12:56 88° NE 20:13:58 44° ESE visible
7 Apr 1.8 19:32:53 10° NW 19:36:30 71° NNE 19:39:04 18° ESE visible
7 Apr 4.0 21:10:55 10° W 21:12:44 18° WSW 21:12:44 18° WSW visible
8 Apr 3.3 20:34:14 10° WNW 20:37:14 25° SW 20:37:52 24° SSW visible
9 Apr 3.0 19:57:36 10° WNW 20:00:52 33° SW 20:03:03 17° SSE visible
10 Apr 2.7 19:21:02 10° WNW 19:24:28 43° SW 19:27:52 10° SSE visible
12 Apr 4.5 19:47:07 10° WSW 19:48:24 12° SW 19:49:41 10° SSW visible
